| time (UTC) | temp F | wind direction | speed MPH | gust MPH | rain 1hr in | rain 24hr in | rain mn in | humidity % | barometer mb |
| 20260506143525 | 56 | 281 | 1.0 | 3.0 | 0.00 | 0.00 | 0.00 | 1021.0 | |
| 20260506143037 | 56 | 268 | 0.0 | 3.0 | 0.00 | 0.00 | 0.00 | 1021.0 | |
| 20260506142528 | 56 | 234 | 1.0 | 3.0 | 0.00 | 0.00 | 0.00 | 1021.0 | |
| 20260506142025 | 56 | 0 | 1.0 | 3.0 | 0.00 | 0.00 | 0.00 | 1021.1 | |
| 20260506141538 | 56 | 124 | 1.0 | 3.0 | 0.00 | 0.00 | 0.00 | 1021.0 | |
| 20260506141026 | 55 | 99 | 1.0 | 5.0 | 0.00 | 0.00 | 0.00 | 1021.0 | |
| 20260506140526 | 55 | 183 | 0.0 | 6.0 | 0.00 | 0.00 | 0.00 | 1021.1 | |
| 20260506140053 | 55 | 60 | 1.0 | 7.0 | 0.00 | 0.00 | 0.00 | 1021.0 | |
| 20260506135530 | 54 | 0 | 3.0 | 7.0 | 0.00 | 0.00 | 0.00 | 1020.9 | |
| 20260506135029 | 55 | 257 | 3.0 | 7.0 | 0.00 | 0.00 | 0.00 | 1020.7 | |
| 20260506134606 | 55 | 325 | 1.0 | 6.0 | 0.00 | 0.00 | 0.00 | 1020.8 | |
| 20260506134026 | 54 | 311 | 2.0 | 7.0 | 0.00 | 0.00 | 0.00 | 1020.6 | |
| 20260506133526 | 54 | 283 | 4.0 | 7.0 | 0.00 | 0.00 | 0.00 | 1020.6 | |
| 20260506133038 | 54 | 286 | 4.0 | 7.0 | 0.00 | 0.00 | 0.00 | 1020.7 | |
| 20260506132527 | 54 | 307 | 2.0 | 6.0 | 0.00 | 0.00 | 0.00 | 1020.5 | |
| 20260506132026 | 54 | 276 | 3.0 | 6.0 | 0.00 | 0.00 | 0.00 | 1020.5 | |
| 20260506131546 | 54 | 295 | 2.0 | 6.0 | 0.00 | 0.00 | 0.00 | 1020.6 | |
| 20260506131027 | 54 | 280 | 2.0 | 8.0 | 0.00 | 0.00 | 0.00 | 1020.6 | |
| 20260506130532 | 54 | 261 | 3.0 | 8.0 | 0.00 | 0.00 | 0.00 | 1020.5 | |
| 20260506130044 | 54 | 290 | 5.0 | 8.0 | 0.00 | 0.00 | 0.00 | 1020.4 | |
| 20260506125528 | 54 | 268 | 1.0 | 6.0 | 0.00 | 0.00 | 0.00 | 1020.4 | |
| 20260506125026 | 54 | 283 | 1.0 | 6.0 | 0.00 | 0.00 | 0.00 | 1020.3 | |
| 20260506124536 | 54 | 286 | 2.0 | 6.0 | 0.00 | 0.00 | 0.00 | 1020.5 | |
| 20260506124026 | 54 | 286 | 2.0 | 5.0 | 0.00 | 0.00 | 0.00 | 1020.4 | |
| 20260506123526 | 55 | 283 | 0.0 | 5.0 | 0.00 | 0.00 | 0.00 | 1020.4 | |
| 20260506123045 | 55 | 22 | 1.0 | 5.0 | 0.00 | 0.00 | 0.00 | 1020.5 | |
| 20260506122527 | 55 | 0 | 0.0 | 5.0 | 0.00 | 0.00 | 0.00 | 1020.4 | |
| 20260506122026 | 55 | 201 | 2.0 | 7.0 | 0.00 | 0.00 | 0.00 | 1020.4 | |
| 20260506121539 | 55 | 268 | 2.0 | 7.0 | 0.00 | 0.00 | 0.00 | 1020.2 | |
| 20260506121026 | 55 | 268 | 1.0 | 7.0 | 0.00 | 0.00 | 0.00 | 1020.3 | |
| 20260506120530 | 55 | 99 | 1.0 | 7.0 | 0.00 | 0.00 | 0.00 | 1020.3 | |
| 20260506120037 | 55 | 276 | 1.0 | 7.0 | 0.00 | 0.00 | 0.00 | 1020.3 | |
| 20260506115526 | 55 | 99 | 1.0 | 5.0 | 0.00 | 0.00 | 0.00 | 1020.2 | |
| 20260506115027 | 55 | 0 | 1.0 | 6.0 | 0.00 | 0.00 | 0.00 | 1020.2 | |
| 20260506114544 | 55 | 285 | 1.0 | 6.0 | 0.00 | 0.00 | 0.00 | 1020.1 | |
| 20260506114026 | 55 | 259 | 2.0 | 6.0 | 0.00 | 0.00 | 0.00 | 1020.0 | |
| 20260506113526 | 55 | 12 | 2.0 | 6.0 | 0.00 | 0.00 | 0.00 | 1020.0 | |
| 20260506113039 | 55 | 0 | 1.0 | 4.0 | 0.00 | 0.00 | 0.00 | 1019.9 | |
| 20260506112527 | 56 | 200 | 1.0 | 5.0 | 0.00 | 0.00 | 0.00 | 1019.8 | |
| 20260506112026 | 56 | 99 | 1.0 | 5.0 | 0.00 | 0.00 | 0.00 | 1019.9 | |
| 20260506111537 | 56 | 305 | 1.0 | 5.0 | 0.00 | 0.00 | 0.00 | 1019.9 | |
| 20260506111027 | 55 | 0 | 0.0 | 6.0 | 0.00 | 0.00 | 0.00 | 1019.6 | |
| 20260506110526 | 55 | 0 | 2.0 | 6.0 | 0.00 | 0.00 | 0.00 | 1019.7 | |
| 20260506110041 | 55 | 286 | 2.0 | 6.0 | 0.00 | 0.00 | 0.00 | 1019.6 | |
| 20260506105529 | 55 | 112 | 2.0 | 5.0 | 0.00 | 0.00 | 0.00 | 1019.5 | |
| 20260506105026 | 55 | 311 | 1.0 | 6.0 | 0.00 | 0.00 | 0.00 | 1019.4 | |
| 20260506104541 | 55 | 243 | 2.0 | 6.0 | 0.00 | 0.00 | 0.00 | 1019.3 | |
| 20260506104029 | 56 | 291 | 1.0 | 6.0 | 0.00 | 0.00 | 0.00 | 1019.3 | |
| 20260506103526 | 56 | 288 | 2.0 | 6.0 | 0.00 | 0.00 | 0.00 | 1019.2 | |
| 20260506103044 | 56 | 288 | 4.0 | 6.0 | 0.00 | 0.00 | 0.00 | 1019.1 | |
| 20260506102529 | 56 | 285 | 2.0 | 7.0 | 0.00 | 0.00 | 0.00 | 1019.1 | |
| 20260506102027 | 56 | 292 | 2.0 | 7.0 | 0.00 | 0.00 | 0.00 | 1019.1 | |
| 20260506101536 | 56 | 290 | 2.0 | 6.0 | 0.00 | 0.00 | 0.00 | 1019.1 | |
| 20260506101026 | 56 | 64 | 3.0 | 6.0 | 0.00 | 0.00 | 0.00 | 1019.3 | |
| 20260506100526 | 56 | 243 | 2.0 | 4.0 | 0.00 | 0.00 | 0.00 | 1019.1 | |
| 20260506100037 | 56 | 158 | 1.0 | 4.0 | 0.00 | 0.00 | 0.00 | 1019.1 | |
| 20260506095526 | 56 | 255 | 1.0 | 5.0 | 0.00 | 0.00 | 0.00 | 1019.1 | |
| 20260506095027 | 56 | 299 | 2.0 | 5.0 | 0.00 | 0.00 | 0.00 | 1019.1 | |
| 20260506094541 | 56 | 290 | 2.0 | 5.0 | 0.00 | 0.00 | 0.00 | 1019.1 | |
| 20260506094030 | 56 | 295 | 2.0 | 5.0 | 0.00 | 0.00 | 0.00 | 1019.0 | |
| 20260506093527 | 56 | 278 | 3.0 | 5.0 | 0.00 | 0.00 | 0.00 | 1019.1 | |
| 20260506093051 | 57 | 305 | 1.0 | 4.0 | 0.00 | 0.00 | 0.00 | 1019.1 | |
| 20260506092528 | 57 | 298 | 1.0 | 5.0 | 0.00 | 0.00 | 0.00 | 1018.9 | |
| 20260506092028 | 57 | 280 | 2.0 | 5.0 | 0.00 | 0.00 | 0.00 | 1018.9 | |
| 20260506091537 | 57 | 282 | 2.0 | 5.0 | 0.00 | 0.00 | 0.00 | 1019.0 | |
| 20260506091027 | 57 | 0 | 1.0 | 5.0 | 0.00 | 0.00 | 0.00 | 1019.0 | |
| 20260506090526 | 57 | 292 | 1.0 | 4.0 | 0.00 | 0.00 | 0.00 | 1019.0 | |
| 20260506090036 | 57 | 290 | 1.0 | 4.0 | 0.00 | 0.00 | 0.00 | 1018.9 | |
| 20260506085527 | 57 | 0 | 1.0 | 4.0 | 0.00 | 0.00 | 0.00 | 1018.9 | |
| 20260506085027 | 58 | 243 | 1.0 | 3.0 | 0.00 | 0.00 | 0.00 | 1018.9 | |
| 20260506084536 | 58 | 329 | 0.0 | 3.0 | 0.00 | 0.00 | 0.00 | 1019.1 | |
| 20260506084027 | 58 | 0 | 0.0 | 3.0 | 0.00 | 0.00 | 0.00 | 1019.1 | |
| 20260506083527 | 58 | 278 | 1.0 | 5.0 | 0.00 | 0.00 | 0.00 | 1018.9 | |
| 20260506083042 | 58 | 124 | 1.0 | 7.0 | 0.00 | 0.00 | 0.00 | 1018.9 | |
| 20260506082527 | 58 | 276 | 2.0 | 7.0 | 0.00 | 0.00 | 0.00 | 1019.0 | |
| 20260506082033 | 58 | 290 | 2.0 | 7.0 | 0.00 | 0.00 | 0.00 | 1018.9 | |
| 20260506081546 | 58 | 210 | 2.0 | 8.0 | 0.00 | 0.00 | 0.00 | 1018.9 | |
| 20260506081028 | 58 | 105 | 3.0 | 8.0 | 0.00 | 0.00 | 0.00 | 1018.7 | |
| 20260506080529 | 58 | 297 | 1.0 | 5.0 | 0.00 | 0.00 | 0.00 | 1018.8 | |
| 20260506073526 | 58 | 302 | 1.0 | 5.0 | 0.00 | 0.00 | 0.00 | 1018.7 | |
| 20260506073043 | 58 | 268 | 1.0 | 5.0 | 0.00 | 0.00 | 0.00 | 1018.6 | |
| 20260506072526 | 59 | 39 | 0.0 | 6.0 | 0.00 | 0.00 | 0.00 | 1018.5 | |
| 20260506072029 | 59 | 302 | 3.0 | 6.0 | 0.00 | 0.00 | 0.00 | 1018.5 | |
| 20260506071545 | 59 | 243 | 3.0 | 6.0 | 0.00 | 0.00 | 0.00 | 1018.5 | |
| 20260506071027 | 59 | 257 | 2.0 | 6.0 | 0.00 | 0.00 | 0.00 | 1018.5 | |
| 20260506070528 | 59 | 222 | 3.0 | 6.0 | 0.00 | 0.00 | 0.00 | 1018.4 | |
| 20260506062027 | 59 | 261 | 1.0 | 3.0 | 0.00 | 0.00 | 0.00 | 1018.3 | |
| 20260506061544 | 59 | 322 | 1.0 | 4.0 | 0.00 | 0.00 | 0.00 | 1018.3 | |
| 20260506061027 | 59 | 192 | 1.0 | 4.0 | 0.00 | 0.00 | 0.00 | 1018.2 | |
| 20260506060528 | 59 | 261 | 1.0 | 4.0 | 0.00 | 0.00 | 0.00 | 1018.2 | |
| 20260506051027 | 60 | 291 | 5.0 | 9.0 | 0.00 | 0.00 | 0.00 | 1017.9 | |
| 20260506050528 | 60 | 288 | 1.0 | 6.0 | 0.00 | 0.00 | 0.00 | 1017.9 | |
| 20260506045027 | 59 | 170 | 1.0 | 4.0 | 0.00 | 0.00 | 0.00 | 1017.7 | |
| 20260506044539 | 59 | 252 | 2.0 | 4.0 | 0.00 | 0.00 | 0.00 | 1017.8 | |
| 20260506044029 | 59 | 0 | 1.0 | 4.0 | 0.00 | 0.00 | 0.00 | 1017.7 | |
| 20260506043526 | 60 | 183 | 0.0 | 2.0 | 0.00 | 0.00 | 0.00 | 1017.7 | |
| 20260506043109 | 60 | 39 | 0.0 | 2.0 | 0.00 | 0.00 | 0.00 | 1017.7 | |
| 20260506042526 | 59 | 302 | 1.0 | 2.0 | 0.00 | 0.00 | 0.00 | 1017.6 | |
| 20260506042025 | 59 | 311 | 0.0 | 2.0 | 0.00 | 0.00 | 0.00 | 1017.4 | |
| 20260506041539 | 59 | 227 | 1.0 | 2.0 | 0.00 | 0.00 | 0.00 | 1017.5 | |
| 20260506041027 | 58 | 183 | 1.0 | 4.0 | 0.00 | 0.00 | 0.00 | 1017.4 | |
| 20260506040526 | 58 | 227 | 1.0 | 4.0 | 0.00 | 0.00 | 0.00 | 1017.5 | |
| 20260506040038 | 58 | 250 | 2.0 | 4.0 | 0.00 | 0.00 | 0.00 | 1017.4 | |
| 20260506035527 | 59 | 254 | 2.0 | 4.0 | 0.00 | 0.00 | 0.00 | 1017.3 | |
| 20260506035026 | 60 | 344 | 1.0 | 4.0 | 0.00 | 0.00 | 0.00 | 1017.3 | |
| 20260506034537 | 59 | 278 | 2.0 | 4.0 | 0.00 | 0.00 | 0.00 | 1017.2 | |
| 20260506034027 | 59 | 252 | 2.0 | 4.0 | 0.00 | 0.00 | 0.00 | 1017.1 | |
| 20260506033528 | 60 | 277 | 0.0 | 2.0 | 0.00 | 0.00 | 0.00 | 1017.0 | |
| 20260506033039 | 60 | 227 | 1.0 | 2.0 | 0.00 | 0.00 | 0.00 | 1017.0 | |
| 20260506032524 | 61 | 283 | 0.0 | 2.0 | 0.00 | 0.00 | 0.00 | 1017.0 | |
| 20260506032024 | 61 | 0 | 0.0 | 2.0 | 0.00 | 0.00 | 0.00 | 1017.0 | |
| 20260506031539 | 61 | 0 | 0.0 | 2.0 | 0.00 | 0.00 | 0.00 | 1016.9 | |
| 20260506031028 | 61 | 295 | 0.0 | 3.0 | 0.00 | 0.00 | 0.00 | 1016.9 | |
| 20260506030527 | 60 | 295 | 1.0 | 4.0 | 0.00 | 0.00 | 0.00 | 1016.9 | |
| 20260506030037 | 60 | 0 | 1.0 | 4.0 | 0.00 | 0.00 | 0.00 | 1016.8 | |
| 20260506025529 | 60 | 259 | 1.0 | 3.0 | 0.00 | 0.00 | 0.00 | 1016.8 | |
| 20260506025026 | 60 | 292 | 1.0 | 3.0 | 0.00 | 0.00 | 0.00 | 1016.8 | |
| 20260506024551 | 60 | 291 | 1.0 | 4.0 | 0.00 | 0.00 | 0.00 | 1016.8 | |
| 20260506024026 | 61 | 286 | 0.0 | 4.0 | 0.00 | 0.00 | 0.00 | 1016.7 | |
| 20260506023526 | 60 | 268 | 2.0 | 4.0 | 0.00 | 0.00 | 0.00 | 1016.6 | |
| 20260506023044 | 61 | 281 | 1.0 | 4.0 | 0.00 | 0.00 | 0.00 | 1016.5 | |
| 20260506022530 | 61 | 286 | 0.0 | 3.0 | 0.00 | 0.00 | 0.00 | 1016.5 | |
| 20260506022027 | 61 | 0 | 0.0 | 4.0 | 0.00 | 0.00 | 0.00 | 1016.7 | |
| 20260506021538 | 62 | 0 | 0.0 | 4.0 | 0.00 | 0.00 | 0.00 | 1016.6 | |
| 20260506021026 | 61 | 0 | 1.0 | 5.0 | 0.00 | 0.00 | 0.00 | 1016.7 | |
| 20260506020526 | 61 | 283 | 1.0 | 6.0 | 0.00 | 0.00 | 0.00 | 1016.6 | |
| 20260506020040 | 61 | 283 | 1.0 | 6.0 | 0.00 | 0.00 | 0.00 | 1016.6 | |
| 20260506015526 | 61 | 277 | 2.0 | 6.0 | 0.00 | 0.00 | 0.00 | 1016.7 | |
| 20260506015029 | 62 | 292 | 1.0 | 4.0 | 0.00 | 0.00 | 0.00 | 1016.7 | |
| 20260506014537 | 62 | 295 | 0.0 | 4.0 | 0.00 | 0.00 | 0.00 | 1016.7 | |
| 20260506014026 | 62 | 0 | 1.0 | 4.0 | 0.00 | 0.00 | 0.00 | 1016.6 | |
| 20260506013526 | 62 | 291 | 1.0 | 5.0 | 0.00 | 0.00 | 0.00 | 1016.5 | |
| 20260506013038 | 62 | 210 | 1.0 | 5.0 | 0.00 | 0.00 | 0.00 | 1016.6 | |
| 20260506012524 | 62 | 284 | 1.0 | 5.0 | 0.00 | 0.00 | 0.00 | 1016.6 | |
| 20260506012026 | 62 | 0 | 1.0 | 5.0 | 0.00 | 0.00 | 0.00 | 1016.6 | |
| 20260506011602 | 62 | 309 | 2.0 | 5.0 | 0.00 | 0.00 | 0.00 | 1016.5 | |
| 20260506011026 | 63 | 311 | 1.0 | 5.0 | 0.00 | 0.00 | 0.00 | 1016.7 | |
| 20260506010526 | 63 | 268 | 0.0 | 5.0 | 0.00 | 0.00 | 0.00 | 1016.6 | |
| 20260506010037 | 63 | 268 | 1.0 | 5.0 | 0.00 | 0.00 | 0.00 | 1016.6 | |
| 20260506005525 | 63 | 311 | 1.0 | 5.0 | 0.00 | 0.00 | 0.00 | 1016.5 | |
| 20260506005025 | 63 | 268 | 1.0 | 3.0 | 0.00 | 0.00 | 0.00 | 1016.7 | |
| 20260506004552 | 64 | 0 | 0.0 | 3.0 | 0.00 | 0.00 | 0.00 | 1016.6 | |
| 20260506004026 | 64 | 252 | 0.0 | 3.0 | 0.00 | 0.00 | 0.00 | 1016.7 | |
| 20260506003524 | 64 | 243 | 1.0 | 4.0 | 0.00 | 0.00 | 0.00 | 1016.7 | |
| 20260506003036 | 64 | 64 | 1.0 | 4.0 | 0.00 | 0.00 | 0.00 | 1016.6 | |
| 20260506002524 | 65 | 49 | 0.0 | 3.0 | 0.00 | 0.00 | 0.00 | 1016.6 | |
| 20260506002024 | 64 | 0 | 1.0 | 3.0 | 0.00 | 0.00 | 0.00 | 1016.8 | |
| 20260506001544 | 65 | 141 | 0.0 | 3.0 | 0.00 | 0.00 | 0.00 | 1016.7 | |
| 20260506001027 | 64 | 134 | 1.0 | 4.0 | 0.00 | 0.00 | 0.00 | 1016.8 | |
| 20260506000527 | 64 | 0 | 0.0 | 6.0 | 0.00 | 0.00 | 0.00 | 1016.9 | |
| 20260506000108 | 64 | 205 | 1.0 | 6.0 | 0.00 | 0.00 | 0.00 | 1017.1 | |
| 20260505235527 | 64 | 305 | 1.0 | 4.0 | 0.00 | 0.00 | 0.00 | 1017.0 | |
| 20260505235027 | 64 | 207 | 1.0 | 4.0 | 0.00 | 0.00 | 0.00 | 1017.1 | |
| 20260505234544 | 64 | 268 | 1.0 | 4.0 | 0.00 | 0.00 | 0.00 | 1016.9 | |
| 20260505234027 | 64 | 170 | 0.0 | 2.0 | 0.00 | 0.00 | 0.00 | 1017.0 | |
| 20260505233528 | 64 | 183 | 0.0 | 4.0 | 0.00 | 0.00 | 0.00 | 1017.1 | |
| 20260505233037 | 64 | 259 | 1.0 | 4.0 | 0.00 | 0.00 | 0.00 | 1017.0 | |
| 20260505232526 | 64 | 0 | 1.0 | 5.0 | 0.00 | 0.00 | 0.00 | 1017.1 | |
| 20260505232024 | 65 | 247 | 1.0 | 5.0 | 0.00 | 0.00 | 0.00 | 1017.1 | |
| 20260505231537 | 64 | 252 | 1.0 | 5.0 | 0.00 | 0.00 | 0.00 | 1017.0 | |
| 20260505231024 | 65 | 299 | 1.0 | 5.0 | 0.00 | 0.00 | 0.00 | 1017.0 | |
| 20260505230524 | 65 | 0 | 1.0 | 5.0 | 0.00 | 0.00 | 0.00 | 1017.1 | |
| 20260505230058 | 68 | 286 | 1.0 | 5.0 | 0.00 | 0.00 | 0.00 | 1017.0 | |
| 20260505225530 | 67 | 261 | 1.0 | 5.0 | 0.00 | 0.00 | 0.00 | 1017.0 | |
| 20260505225024 | 69 | 322 | 1.0 | 5.0 | 0.00 | 0.00 | 0.00 | 1017.0 | |
| 20260505224541 | 70 | 250 | 1.0 | 5.0 | 0.00 | 0.00 | 0.00 | 1017.0 | |
| 20260505224023 | 72 | 76 | 1.0 | 6.0 | 0.00 | 0.00 | 0.00 | 1017.2 | |
| 20260505223525 | 71 | 157 | 1.0 | 6.0 | 0.00 | 0.00 | 0.00 | 1017.2 | |
| 20260505223039 | 71 | 0 | 1.0 | 4.0 | 0.00 | 0.00 | 0.00 | 1017.1 | |
| 20260505222529 | 72 | 268 | 1.0 | 4.0 | 0.00 | 0.00 | 0.00 | 1017.2 | |
| 20260505222025 | 73 | 322 | 1.0 | 4.0 | 0.00 | 0.00 | 0.00 | 1017.2 | |
| 20260505221536 | 70 | 227 | 1.0 | 4.0 | 0.00 | 0.00 | 0.00 | 1017.2 | |
| 20260505221024 | 70 | 141 | 1.0 | 5.0 | 0.00 | 0.00 | 0.00 | 1017.3 | |
| 20260505220523 | 70 | 0 | 1.0 | 5.0 | 0.00 | 0.00 | 0.00 | 1017.3 | |
| 20260505220039 | 69 | 295 | 1.0 | 5.0 | 0.00 | 0.00 | 0.00 | 1017.4 | |
| 20260505215523 | 70 | 355 | 1.0 | 5.0 | 0.00 | 0.00 | 0.00 | 1017.4 | |
| 20260505215023 | 71 | 286 | 1.0 | 6.0 | 0.00 | 0.00 | 0.00 | 1017.3 | |
| 20260505214542 | 72 | 183 | 1.0 | 7.0 | 0.00 | 0.00 | 0.00 | 1017.3 | |
| 20260505214024 | 77 | 243 | 1.0 | 7.0 | 0.00 | 0.00 | 0.00 | 1017.4 | |
| 20260505213525 | 78 | 71 | 1.0 | 5.0 | 0.00 | 0.00 | 0.00 | 1017.3 | |
| 20260505213039 | 78 | 283 | 1.0 | 5.0 | 0.00 | 0.00 | 0.00 | 1017.5 | |
| 20260505212527 | 77 | 114 | 1.0 | 6.0 | 0.00 | 0.00 | 0.00 | 1017.5 | |
| 20260505212027 | 76 | 183 | 1.0 | 6.0 | 0.00 | 0.00 | 0.00 | 1017.6 | |
| 20260505211540 | 74 | 283 | 1.0 | 7.0 | 0.00 | 0.00 | 0.00 | 1017.5 | |
| 20260505211027 | 70 | 286 | 2.0 | 7.0 | 0.00 | 0.00 | 0.00 | 1017.7 | |
| 20260505210528 | 77 | 55 | 1.0 | 8.0 | 0.00 | 0.00 | 0.00 | 1017.7 | |
| 20260505210036 | 75 | 124 | 2.0 | 8.0 | 0.00 | 0.00 | 0.00 | 1017.8 | |
| 20260505205525 | 75 | 141 | 1.0 | 7.0 | 0.00 | 0.00 | 0.00 | 1017.7 | |
| 20260505205028 | 72 | 268 | 1.0 | 7.0 | 0.00 | 0.00 | 0.00 | 1017.7 | |
| 20260505204545 | 68 | 334 | 1.0 | 7.0 | 0.00 | 0.00 | 0.00 | 1017.9 | |
| 20260505204026 | 64 | 295 | 2.0 | 7.0 | 0.00 | 0.00 | 0.00 | 1017.8 | |
| 20260505203525 | 67 | 320 | 2.0 | 7.0 | 0.00 | 0.00 | 0.00 | 1017.8 | |
| 20260505203052 | 71 | 284 | 1.0 | 5.0 | 0.00 | 0.00 | 0.00 | 1017.8 | |
| 20260505202527 | 69 | 0 | 1.0 | 4.0 | 0.00 | 0.00 | 0.00 | 1017.9 | |
| 20260505202027 | 67 | 356 | 1.0 | 4.0 | 0.00 | 0.00 | 0.00 | 1017.9 | |
| 20260505201540 | 66 | 124 | 1.0 | 4.0 | 0.00 | 0.00 | 0.00 | 1018.0 | |
| 20260505201029 | 64 | 355 | 1.0 | 4.0 | 0.00 | 0.00 | 0.00 | 1017.9 | |
| 20260505200527 | 65 | 292 | 1.0 | 5.0 | 0.00 | 0.00 | 0.00 | 1017.9 | |
| 20260505200038 | 65 | 239 | 0.0 | 5.0 | 0.00 | 0.00 | 0.00 | 1017.9 | |
| 20260505195526 | 65 | 355 | 0.0 | 3.0 | 0.00 | 0.00 | 0.00 | 1017.9 | |
| 20260505195026 | 65 | 0 | 0.0 | 3.0 | 0.00 | 0.00 | 0.00 | 1018.0 | |
| 20260505194550 | 64 | 131 | 1.0 | 3.0 | 0.00 | 0.00 | 0.00 | 1018.0 | |
| 20260505194026 | 63 | 124 | 0.0 | 3.0 | 0.00 | 0.00 | 0.00 | 1017.9 | |
| 20260505193524 | 63 | 227 | 1.0 | 3.0 | 0.00 | 0.00 | 0.00 | 1018.1 | |
| 20260505193038 | 63 | 141 | 0.0 | 2.0 | 0.00 | 0.00 | 0.00 | 1018.0 | |
| 20260505192526 | 63 | 116 | 0.0 | 2.0 | 0.00 | 0.00 | 0.00 | 1017.9 | |
| 20260505192024 | 62 | 99 | 0.0 | 3.0 | 0.00 | 0.00 | 0.00 | 1018.1 | |
| 20260505191553 | 62 | 141 | 0.0 | 3.0 | 0.00 | 0.00 | 0.00 | 1018.0 | |
| 20260505191027 | 62 | 268 | 1.0 | 3.0 | 0.00 | 0.00 | 0.00 | 1018.0 | |
| 20260505190531 | 63 | 49 | 1.0 | 3.0 | 0.00 | 0.00 | 0.00 | 1018.1 | |
| 20260505190041 | 62 | 109 | 0.0 | 4.0 | 0.00 | 0.00 | 0.00 | 1018.2 | |
| 20260505185527 | 60 | 0 | 1.0 | 4.0 | 0.00 | 0.00 | 0.00 | 1018.2 | |
| 20260505185029 | 61 | 283 | 0.0 | 4.0 | 0.00 | 0.00 | 0.00 | 1018.0 | |
| 20260505184538 | 62 | 55 | 0.0 | 2.0 | 0.00 | 0.00 | 0.00 | 1018.0 | |
| 20260505184025 | 61 | 151 | 0.0 | 2.0 | 0.00 | 0.00 | 0.00 | 1018.1 | |
| 20260505183526 | 61 | 255 | 0.0 | 2.0 | 0.00 | 0.00 | 0.00 | 1018.2 | |
| 20260505183043 | 61 | 39 | 0.0 | 2.0 | 0.00 | 0.00 | 0.00 | 1018.1 | |
| 20260505182527 | 62 | 0 | 0.0 | 2.0 | 0.00 | 0.00 | 0.00 | 1018.1 | |
| 20260505182027 | 61 | 151 | 0.0 | 3.0 | 0.00 | 0.00 | 0.00 | 1017.9 | |
| 20260505181538 | 59 | 158 | 0.0 | 4.0 | 0.00 | 0.00 | 0.00 | 1018.0 | |
| 20260505181028 | 60 | 239 | 1.0 | 4.0 | 0.00 | 0.00 | 0.00 | 1018.0 | |
| 20260505180526 | 62 | 243 | 0.0 | 2.0 | 0.00 | 0.00 | 0.00 | 1018.0 | |
| 20260505180049 | 62 | 0 | 0.0 | 3.0 | 0.00 | 0.00 | 0.00 | 1018.0 | |
| 20260505175526 | 61 | 210 | 0.0 | 3.0 | 0.00 | 0.00 | 0.00 | 1017.9 | |
| 20260505175026 | 62 | 76 | 0.0 | 3.0 | 0.00 | 0.00 | 0.00 | 1017.9 | |
| 20260505174540 | 62 | 0 | 0.0 | 3.0 | 0.00 | 0.00 | 0.00 | 1017.9 | |
| 20260505174029 | 61 | 124 | 0.0 | 2.0 | 0.00 | 0.00 | 0.00 | 1017.9 | |
| 20260505173531 | 60 | 0 | 0.0 | 2.0 | 0.00 | 0.00 | 0.00 | 1017.9 | |
| 20260505173036 | 60 | 141 | 0.0 | 2.0 | 0.00 | 0.00 | 0.00 | 1017.9 | |
| 20260505172526 | 59 | 0 | 0.0 | 2.0 | 0.00 | 0.00 | 0.00 | 1017.8 | |
| 20260505172027 | 58 | 268 | 0.0 | 3.0 | 0.00 | 0.00 | 0.00 | 1017.8 | |
| 20260505171538 | 58 | 227 | 0.0 | 3.0 | 0.00 | 0.00 | 0.00 | 1017.8 | |
| 20260505171027 | 57 | 305 | 0.0 | 2.0 | 0.00 | 0.00 | 0.00 | 1017.8 | |
| 20260505170525 | 57 | 201 | 1.0 | 4.0 | 0.00 | 0.00 | 0.00 | 1017.8 | |
| 20260505170037 | 56 | 227 | 1.0 | 4.0 | 0.00 | 0.00 | 0.00 | 1017.7 | |
| 20260505165523 | 56 | 252 | 1.0 | 4.0 | 0.00 | 0.00 | 0.00 | 1017.7 | |
| 20260505165023 | 58 | 295 | 0.0 | 4.0 | 0.00 | 0.00 | 0.00 | 1017.8 | |
| 20260505164543 | 58 | 302 | 0.0 | 2.0 | 0.00 | 0.00 | 0.00 | 1017.7 | |
| 20260505164024 | 58 | 0 | 0.0 | 3.0 | 0.00 | 0.00 | 0.00 | 1017.7 | |
| 20260505163527 | 57 | 183 | 1.0 | 4.0 | 0.00 | 0.00 | 0.00 | 1017.7 | |
| 20260505163037 | 57 | 230 | 0.0 | 4.0 | 0.00 | 0.00 | 0.00 | 1017.5 | |
| 20260505162526 | 56 | 248 | 1.0 | 4.0 | 0.00 | 0.00 | 0.00 | 1017.5 | |
| 20260505162028 | 56 | 183 | 1.0 | 4.0 | 0.00 | 0.00 | 0.00 | 1017.5 | |
| 20260505161537 | 56 | 268 | 0.0 | 3.0 | 0.00 | 0.00 | 0.00 | 1017.5 | |
| 20260505161027 | 56 | 0 | 0.0 | 5.0 | 0.00 | 0.00 | 0.00 | 1017.4 | |
| 20260505160529 | 55 | 201 | 1.0 | 7.0 | 0.00 | 0.00 | 0.00 | 1017.5 | |
| 20260505153036 | 53 | 286 | 4.0 | 9.0 | 0.00 | 0.00 | 0.00 | 1017.3 | |
| 20260505152524 | 52 | 264 | 4.0 | 9.0 | 0.00 | 0.00 | 0.00 | 1017.3 | |
| 20260505152028 | 53 | 282 | 4.0 | 9.0 | 0.00 | 0.00 | 0.00 | 1017.4 | |
| 20260505151540 | 53 | 268 | 6.0 | 9.0 | 0.00 | 0.00 | 0.00 | 1017.3 | |
| 20260505151027 | 53 | 309 | 5.0 | 8.0 | 0.00 | 0.00 | 0.00 | 1017.3 | |
| 20260505150527 | 53 | 278 | 5.0 | 8.0 | 0.00 | 0.00 | 0.00 | 1017.3 |